Terminal Aerodrome Forecast
Issued by NWS

Home | Current Version | Previous Version | Text Only | Print | Product List | Glossary On
Versions: 1 2 3 4 5 6 7 8 9 10 11 12 13 14 15 16 17 18 19
000
FTUS45 KTFX 252351 RRA
TAFGTF
TAF
KGTF 252351Z 2600/2624 06010KT P6SM -SHRA VCTS SCT020 BKN050CB
      TEMPO 2600/2602 VRB15G30KT -TSRAGS BKN020CB
     FM260400 36005KT P6SM VCSH SCT030 BKN050
     FM261000 15006KT P6SM BKN050
     FM261200 21007KT P6SM BKN050 PROB30 2612/2618 4SM -SHRASN
      OVC025=

USA.gov is the U.S. government's official web portal to all federal, state and local government web resources and services.